Time,TemperatureF,DewpointF,PressureIn,WindDirection,WindDirectionDegrees,WindSpeedMPH,WindSpeedGustMPH,Humidity,HourlyPrecipIn,Conditions,Clouds,dailyrainin,SoftwareType,DateUTC
2013-01-04 00:00:00,41.0,32.7,30.40,NNW,336,2.0,8.0,72,0.00,,,0.00,meteohub,2013-01-04 06:00:00,
2013-01-04 00:05:00,40.8,32.9,30.40,NNW,336,1.0,8.0,73,0.00,,,0.00,meteohub,2013-01-04 06:05:00,
2013-01-04 00:10:00,40.6,32.7,30.39,NNW,336,3.0,6.0,73,0.00,,,0.00,meteohub,2013-01-04 06:10:00,
2013-01-04 00:15:00,40.6,32.7,30.39,NNW,336,2.0,4.0,73,0.00,,,0.00,meteohub,2013-01-04 06:15:00,
2013-01-04 00:20:00,40.6,32.7,30.39,NNW,336,3.0,4.0,73,0.00,,,0.00,meteohub,2013-01-04 06:20:00,
2013-01-04 00:25:00,40.6,32.7,30.39,NNW,336,0.0,5.0,73,0.00,,,0.00,meteohub,2013-01-04 06:25:00,
2013-01-04 00:30:00,40.6,32.7,30.39,NNW,336,3.0,6.0,73,0.00,,,0.00,meteohub,2013-01-04 06:30:00,
2013-01-04 00:35:00,40.6,32.7,30.39,NNW,336,2.0,6.0,73,0.00,,,0.00,meteohub,2013-01-04 06:35:00,
2013-01-04 00:40:00,40.5,32.5,30.38,NNW,336,2.0,6.0,73,0.00,,,0.00,meteohub,2013-01-04 06:40:00,
2013-01-04 00:45:00,40.5,32.5,30.38,NNW,336,2.0,5.0,73,0.00,,,0.00,meteohub,2013-01-04 06:45:00,
2013-01-04 00:50:00,40.5,32.9,30.38,NNW,336,2.0,5.0,74,0.00,,,0.00,meteohub,2013-01-04 06:50:00,
2013-01-04 00:55:00,40.5,32.9,30.37,NNW,336,3.0,5.0,74,0.00,,,0.00,meteohub,2013-01-04 06:55:00,
2013-01-04 01:00:00,40.5,32.5,30.37,NNE,19,5.0,8.0,73,0.00,,,0.00,meteohub,2013-01-04 07:00:00,
2013-01-04 01:05:00,41.0,32.4,30.36,NNE,33,6.0,9.0,71,0.00,,,0.00,meteohub,2013-01-04 07:05:00,
2013-01-04 01:10:00,41.4,32.4,30.38,North,355,4.0,10.0,70,0.00,,,0.00,meteohub,2013-01-04 07:10:00,
2013-01-04 01:15:00,41.5,32.5,30.38,North,5,2.0,10.0,70,0.00,,,0.00,meteohub,2013-01-04 07:15:00,
2013-01-04 01:20:00,41.5,32.5,30.38,NNW,342,5.0,9.0,70,0.00,,,0.00,meteohub,2013-01-04 07:20:00,
2013-01-04 01:25:00,41.7,32.0,30.38,NNE,19,7.0,11.0,68,0.00,,,0.00,meteohub,2013-01-04 07:25:00,
2013-01-04 01:30:00,41.7,32.4,30.38,North,5,3.0,12.0,69,0.00,,,0.00,meteohub,2013-01-04 07:30:00,
2013-01-04 01:35:00,41.5,32.5,30.38,North,5,1.0,12.0,70,0.00,,,0.00,meteohub,2013-01-04 07:35:00,
2013-01-04 01:40:00,41.4,33.1,30.38,North,5,5.0,12.0,72,0.00,,,0.00,meteohub,2013-01-04 07:40:00,
2013-01-04 01:46:00,41.2,32.9,30.38,North,5,3.0,7.0,72,0.00,,,0.00,meteohub,2013-01-04 07:46:00,
2013-01-04 01:51:00,41.0,32.7,30.39,NNW,338,4.0,7.0,72,0.00,,,0.00,meteohub,2013-01-04 07:51:00,
2013-01-04 01:56:00,40.8,32.5,30.39,NNW,340,2.0,7.0,72,0.00,,,0.00,meteohub,2013-01-04 07:56:00,
2013-01-04 02:01:00,40.6,32.7,30.39,NNW,340,2.0,6.0,73,0.00,,,0.00,meteohub,2013-01-04 08:01:00,
2013-01-04 02:06:00,40.5,32.5,30.39,NNW,340,0.0,5.0,73,0.00,,,0.00,meteohub,2013-01-04 08:06:00,
2013-01-04 02:11:00,40.3,32.7,30.39,NNW,340,2.0,5.0,74,0.00,,,0.00,meteohub,2013-01-04 08:11:00,
2013-01-04 02:16:00,39.9,32.4,30.38,NNW,340,2.0,5.0,74,0.00,,,0.00,meteohub,2013-01-04 08:16:00,
2013-01-04 02:21:00,39.9,32.7,30.38,NNW,340,4.0,5.0,75,0.00,,,0.00,meteohub,2013-01-04 08:21:00,
2013-01-04 02:26:00,39.7,32.5,30.37,North,11,7.0,7.0,75,0.00,,,0.00,meteohub,2013-01-04 08:26:00,
2013-01-04 02:31:00,39.7,32.5,30.37,NNE,24,3.0,7.0,75,0.00,,,0.00,meteohub,2013-01-04 08:31:00,
2013-01-04 02:36:00,39.9,32.7,30.37,NE,40,3.0,10.0,75,0.00,,,0.00,meteohub,2013-01-04 08:36:00,
2013-01-04 02:41:00,40.1,32.5,30.37,NE,46,2.0,10.0,74,0.00,,,0.00,meteohub,2013-01-04 08:41:00,
2013-01-04 02:46:00,40.3,32.4,30.37,NNE,23,7.0,10.0,73,0.00,,,0.00,meteohub,2013-01-04 08:46:00,
2013-01-04 02:51:00,40.3,32.0,30.37,NE,51,4.0,9.0,72,0.00,,,0.00,meteohub,2013-01-04 08:51:00,
2013-01-04 02:56:00,40.1,32.2,30.37,NNE,25,3.0,9.0,73,0.00,,,0.00,meteohub,2013-01-04 08:56:00,
2013-01-04 03:01:00,39.9,32.0,30.36,NNE,16,4.0,8.0,73,0.00,,,0.00,meteohub,2013-01-04 09:01:00,
2013-01-04 03:06:00,39.7,31.8,30.37,North,10,3.0,7.0,73,0.00,,,0.00,meteohub,2013-01-04 09:06:00,
2013-01-04 03:11:00,39.7,31.8,30.37,NE,34,1.0,8.0,73,0.00,,,0.00,meteohub,2013-01-04 09:11:00,
2013-01-04 03:16:00,39.6,32.0,30.37,NNE,26,3.0,8.0,74,0.00,,,0.00,meteohub,2013-01-04 09:16:00,
2013-01-04 03:21:00,39.4,31.8,30.36,NNW,340,4.0,8.0,74,0.00,,,0.00,meteohub,2013-01-04 09:21:00,
2013-01-04 03:26:00,39.4,31.8,30.36,NE,34,5.0,8.0,74,0.00,,,0.00,meteohub,2013-01-04 09:26:00,
2013-01-04 03:31:00,39.4,31.8,30.36,North,5,4.0,8.0,74,0.00,,,0.00,meteohub,2013-01-04 09:31:00,
2013-01-04 03:36:00,39.4,31.8,30.36,NE,49,4.0,8.0,74,0.00,,,0.00,meteohub,2013-01-04 09:36:00,
2013-01-04 03:41:00,39.4,31.8,30.36,NNE,27,4.0,10.0,74,0.00,,,0.00,meteohub,2013-01-04 09:41:00,
2013-01-04 03:46:00,39.4,31.8,30.36,North,11,5.0,10.0,74,0.00,,,0.00,meteohub,2013-01-04 09:46:00,
2013-01-04 03:51:00,39.4,31.5,30.37,NNE,28,4.0,10.0,73,0.00,,,0.00,meteohub,2013-01-04 09:51:00,
2013-01-04 03:56:00,39.4,31.5,30.37,NNE,26,4.0,10.0,73,0.00,,,0.00,meteohub,2013-01-04 09:56:00,
2013-01-04 04:01:00,39.4,31.5,30.37,NNE,24,2.0,8.0,73,0.00,,,0.00,meteohub,2013-01-04 10:01:00,
2013-01-04 04:06:00,39.4,31.8,30.37,NNE,22,3.0,6.0,74,0.00,,,0.00,meteohub,2013-01-04 10:06:00,
2013-01-04 04:11:00,39.4,31.5,30.37,NNE,15,3.0,7.0,73,0.00,,,0.00,meteohub,2013-01-04 10:11:00,
2013-01-04 04:16:00,39.2,31.6,30.38,North,355,4.0,7.0,74,0.00,,,0.00,meteohub,2013-01-04 10:16:00,
2013-01-04 04:21:00,39.0,31.5,30.38,North,355,0.0,7.0,74,0.00,,,0.00,meteohub,2013-01-04 10:21:00,
2013-01-04 04:26:00,39.0,31.5,30.38,North,355,3.0,7.0,74,0.00,,,0.00,meteohub,2013-01-04 10:26:00,
2013-01-04 04:31:00,39.0,31.5,30.38,North,0,4.0,6.0,74,0.00,,,0.00,meteohub,2013-01-04 10:31:00,
2013-01-04 04:36:00,39.0,31.5,30.38,North,5,4.0,7.0,74,0.00,,,0.00,meteohub,2013-01-04 10:36:00,
2013-01-04 04:41:00,39.0,31.5,30.38,NNW,338,5.0,7.0,74,0.00,,,0.00,meteohub,2013-01-04 10:41:00,
2013-01-04 04:46:00,39.0,31.1,30.38,North,350,2.0,8.0,73,0.00,,,0.00,meteohub,2013-01-04 10:46:00,
2013-01-04 04:51:00,39.0,31.1,30.38,NNE,28,5.0,8.0,73,0.00,,,0.00,meteohub,2013-01-04 10:51:00,
2013-01-04 04:56:00,38.8,30.9,30.38,North,5,5.0,8.0,73,0.00,,,0.00,meteohub,2013-01-04 10:56:00,
2013-01-04 05:01:00,39.0,31.1,30.37,NNE,29,6.0,8.0,73,0.00,,,0.00,meteohub,2013-01-04 11:01:00,
2013-01-04 05:06:00,38.8,31.3,30.37,North,5,4.0,11.0,74,0.00,,,0.00,meteohub,2013-01-04 11:06:00,
2013-01-04 05:11:00,38.8,31.3,30.37,North,5,2.0,11.0,74,0.00,,,0.00,meteohub,2013-01-04 11:11:00,
2013-01-04 05:16:00,38.7,31.5,30.37,North,5,3.0,10.0,75,0.00,,,0.00,meteohub,2013-01-04 11:16:00,
2013-01-04 05:21:00,38.7,31.5,30.37,North,355,3.0,8.0,75,0.00,,,0.00,meteohub,2013-01-04 11:21:00,
2013-01-04 05:26:00,38.5,31.3,30.37,NNE,19,4.0,7.0,75,0.00,,,0.00,meteohub,2013-01-04 11:26:00,
2013-01-04 05:32:00,38.7,31.5,30.38,North,355,6.0,8.0,75,0.00,,,0.00,meteohub,2013-01-04 11:32:00,
2013-01-04 05:37:00,38.7,31.1,30.38,NE,34,4.0,12.0,74,0.00,,,0.00,meteohub,2013-01-04 11:37:00,
2013-01-04 05:42:00,38.7,31.1,30.39,North,355,4.0,12.0,74,0.00,,,0.00,meteohub,2013-01-04 11:42:00,
2013-01-04 05:47:00,38.5,31.3,30.38,North,0,2.0,10.0,75,0.00,,,0.00,meteohub,2013-01-04 11:47:00,
2013-01-04 05:52:00,38.3,31.5,30.38,North,0,1.0,8.0,76,0.00,,,0.00,meteohub,2013-01-04 11:52:00,
2013-01-04 05:57:00,38.1,31.6,30.38,North,5,2.0,6.0,77,0.00,,,0.00,meteohub,2013-01-04 11:57:00,
2013-01-04 06:02:00,38.1,31.6,30.39,NNW,346,4.0,7.0,77,0.00,,,0.00,meteohub,2013-01-04 12:02:00,
2013-01-04 06:07:00,37.9,31.6,30.40,NNW,346,4.0,9.0,78,0.00,,,0.00,meteohub,2013-01-04 12:07:00,
2013-01-04 06:12:00,37.8,31.8,30.40,NNW,342,1.0,9.0,79,0.00,,,0.00,meteohub,2013-01-04 12:12:00,
2013-01-04 06:17:00,37.6,31.6,30.40,NNW,342,0.0,9.0,79,0.00,,,0.00,meteohub,2013-01-04 12:17:00,
2013-01-04 06:22:00,37.2,31.6,30.40,NNW,342,0.0,5.0,80,0.00,,,0.00,meteohub,2013-01-04 12:22:00,
2013-01-04 06:27:00,37.2,31.6,30.41,NNW,342,1.0,4.0,80,0.00,,,0.00,meteohub,2013-01-04 12:27:00,
2013-01-04 06:32:00,37.2,31.6,30.41,NNW,342,2.0,4.0,80,0.00,,,0.00,meteohub,2013-01-04 12:32:00,
2013-01-04 06:37:00,37.2,31.6,30.41,NNW,342,1.0,3.0,80,0.00,,,0.00,meteohub,2013-01-04 12:37:00,
2013-01-04 06:42:00,37.0,31.5,30.41,NNW,342,1.0,3.0,80,0.00,,,0.00,meteohub,2013-01-04 12:42:00,
2013-01-04 06:47:00,37.0,31.5,30.42,NNW,342,2.0,4.0,80,0.00,,,0.00,meteohub,2013-01-04 12:47:00,
2013-01-04 06:52:00,37.0,31.5,30.43,NNW,342,2.0,4.0,80,0.00,,,0.00,meteohub,2013-01-04 12:52:00,
2013-01-04 06:57:00,37.0,31.5,30.43,NNW,342,2.0,4.0,80,0.00,,,0.00,meteohub,2013-01-04 12:57:00,
2013-01-04 07:02:00,37.0,31.8,30.43,NNW,342,2.0,3.0,81,0.00,,,0.00,meteohub,2013-01-04 13:02:00,
2013-01-04 07:07:00,36.9,31.6,30.43,NNW,342,2.0,4.0,81,0.00,,,0.00,meteohub,2013-01-04 13:07:00,
2013-01-04 07:12:00,36.9,31.6,30.43,NNW,342,0.0,4.0,81,0.00,,,0.00,meteohub,2013-01-04 13:12:00,
2013-01-04 07:17:00,36.7,31.5,30.43,NNW,342,2.0,3.0,81,0.00,,,0.00,meteohub,2013-01-04 13:17:00,
2013-01-04 07:22:00,36.9,31.6,30.43,NNW,342,2.0,3.0,81,0.00,,,0.00,meteohub,2013-01-04 13:22:00,
2013-01-04 07:27:00,36.9,31.8,30.43,NNW,342,2.0,4.0,82,0.00,,,0.00,meteohub,2013-01-04 13:27:00,
2013-01-04 07:32:00,36.9,31.8,30.43,NNW,342,1.0,4.0,82,0.00,,,0.00,meteohub,2013-01-04 13:32:00,
2013-01-04 07:37:00,36.9,31.8,30.43,NNW,342,0.0,4.0,82,0.00,,,0.00,meteohub,2013-01-04 13:37:00,
2013-01-04 07:42:00,37.0,32.0,30.43,NNW,342,0.0,4.0,82,0.00,,,0.00,meteohub,2013-01-04 13:42:00,
2013-01-04 07:47:00,37.2,32.2,30.43,NNW,342,0.0,4.0,82,0.00,,,0.00,meteohub,2013-01-04 13:47:00,
2013-01-04 07:52:00,37.6,32.4,30.43,NNW,342,3.0,4.0,81,0.00,,,0.00,meteohub,2013-01-04 13:52:00,
2013-01-04 07:57:00,38.1,32.2,30.42,NNE,21,2.0,5.0,79,0.00,,,0.00,meteohub,2013-01-04 13:57:00,
2013-01-04 08:02:00,39.0,31.5,30.42,NNE,21,2.0,9.0,74,0.00,,,0.00,meteohub,2013-01-04 14:02:00,
2013-01-04 08:06:00,39.6,31.3,30.43,NNE,32,7.0,9.0,72,0.00,,,0.00,meteohub,2013-01-04 14:06:00,
2013-01-04 08:12:00,39.7,31.5,30.43,NNE,30,6.0,11.0,72,0.00,,,0.00,meteohub,2013-01-04 14:12:00,
2013-01-04 08:17:00,39.7,31.1,30.43,NNE,26,9.0,11.0,71,0.00,,,0.00,meteohub,2013-01-04 14:17:00,
2013-01-04 08:22:00,39.9,30.9,30.44,North,10,1.0,11.0,70,0.00,,,0.00,meteohub,2013-01-04 14:22:00,
2013-01-04 08:27:00,40.1,31.5,30.44,North,10,2.0,9.0,71,0.00,,,0.00,meteohub,2013-01-04 14:27:00,
2013-01-04 08:32:00,40.3,31.6,30.44,North,10,3.0,9.0,71,0.00,,,0.00,meteohub,2013-01-04 14:32:00,
2013-01-04 08:37:00,40.5,31.5,30.44,North,10,5.0,8.0,70,0.00,,,0.00,meteohub,2013-01-04 14:37:00,
2013-01-04 08:42:00,40.6,30.9,30.44,NNE,33,1.0,6.0,68,0.00,,,0.00,meteohub,2013-01-04 14:42:00,
2013-01-04 08:47:00,40.8,31.5,30.44,NNE,33,4.0,7.0,69,0.00,,,0.00,meteohub,2013-01-04 14:47:00,
2013-01-04 08:52:00,40.8,31.1,30.44,NNE,24,4.0,7.0,68,0.00,,,0.00,meteohub,2013-01-04 14:52:00,
2013-01-04 08:57:00,41.2,31.5,30.44,NE,35,4.0,7.0,68,0.00,,,0.00,meteohub,2013-01-04 14:57:00,
2013-01-04 09:02:00,41.2,31.1,30.44,NNE,30,3.0,7.0,67,0.00,,,0.00,meteohub,2013-01-04 15:02:00,
2013-01-04 09:07:00,41.4,30.9,30.45,NNW,345,6.0,9.0,66,0.00,,,0.00,meteohub,2013-01-04 15:07:00,
2013-01-04 09:12:00,41.5,31.1,30.46,NNW,340,2.0,9.0,66,0.00,,,0.00,meteohub,2013-01-04 15:12:00,
2013-01-04 09:17:00,41.7,31.3,30.46,North,0,3.0,9.0,66,0.00,,,0.00,meteohub,2013-01-04 15:17:00,
2013-01-04 09:22:00,42.1,31.5,30.46,North,350,3.0,8.0,66,0.00,,,0.00,meteohub,2013-01-04 15:22:00,
2013-01-04 09:27:00,42.3,31.6,30.47,NNW,334,3.0,7.0,66,0.00,,,0.00,meteohub,2013-01-04 15:27:00,
2013-01-04 09:32:00,42.6,31.3,30.47,NNE,22,5.0,6.0,64,0.00,,,0.00,meteohub,2013-01-04 15:32:00,
2013-01-04 09:37:00,42.6,30.9,30.46,NNE,32,6.0,7.0,63,0.00,,,0.00,meteohub,2013-01-04 15:37:00,
2013-01-04 09:42:00,42.8,30.7,30.46,NNE,20,2.0,9.0,62,0.00,,,0.00,meteohub,2013-01-04 15:42:00,
2013-01-04 09:47:00,43.0,30.9,30.47,North,355,5.0,9.0,62,0.00,,,0.00,meteohub,2013-01-04 15:47:00,
2013-01-04 09:52:00,43.2,31.1,30.46,NNE,19,3.0,9.0,62,0.00,,,0.00,meteohub,2013-01-04 15:52:00,
2013-01-04 09:57:00,43.3,31.3,30.47,NNE,18,3.0,9.0,62,0.00,,,0.00,meteohub,2013-01-04 15:57:00,
2013-01-04 10:02:00,43.5,30.9,30.47,North,0,3.0,7.0,61,0.00,,,0.00,meteohub,2013-01-04 16:02:00,
2013-01-04 10:07:00,43.7,30.7,30.47,North,5,4.0,6.0,60,0.00,,,0.00,meteohub,2013-01-04 16:07:00,
2013-01-04 10:12:00,44.2,31.6,30.47,North,5,4.0,6.0,61,0.00,,,0.00,meteohub,2013-01-04 16:12:00,
2013-01-04 10:17:00,44.2,31.3,30.47,NNW,340,3.0,7.0,60,0.00,,,0.00,meteohub,2013-01-04 16:17:00,
2013-01-04 10:22:00,44.4,30.9,30.47,NNE,25,3.0,7.0,59,0.00,,,0.00,meteohub,2013-01-04 16:22:00,
2013-01-04 10:27:00,44.8,31.3,30.48,NNW,331,4.0,7.0,59,0.00,,,0.00,meteohub,2013-01-04 16:27:00,
2013-01-04 10:32:00,45.1,31.6,30.48,NW,325,5.0,8.0,59,0.00,,,0.00,meteohub,2013-01-04 16:32:00,
2013-01-04 10:37:00,45.7,30.9,30.48,NW,324,7.0,8.0,56,0.00,,,0.00,meteohub,2013-01-04 16:37:00,
2013-01-04 10:42:00,45.3,30.6,30.48,NNW,342,5.0,8.0,56,0.00,,,0.00,meteohub,2013-01-04 16:42:00,
2013-01-04 10:47:00,46.0,31.3,30.48,NNW,344,4.0,9.0,56,0.00,,,0.00,meteohub,2013-01-04 16:47:00,
2013-01-04 10:52:00,46.8,31.8,30.48,NNW,330,5.0,9.0,56,0.00,,,0.00,meteohub,2013-01-04 16:52:00,
2013-01-04 10:57:00,47.3,33.6,30.47,WNW,303,5.0,8.0,59,0.00,,,0.00,meteohub,2013-01-04 16:57:00,
2013-01-04 11:02:00,47.5,32.5,30.47,NNW,327,8.0,10.0,56,0.00,,,0.00,meteohub,2013-01-04 17:02:00,
2013-01-04 11:07:00,47.5,33.1,30.47,NNW,344,7.0,11.0,57,0.00,,,0.00,meteohub,2013-01-04 17:07:00,
2013-01-04 11:12:00,47.5,32.5,30.46,NNW,340,7.0,12.0,56,0.00,,,0.00,meteohub,2013-01-04 17:12:00,
2013-01-04 11:17:00,47.5,32.5,30.45,NNW,339,5.0,12.0,56,0.00,,,0.00,meteohub,2013-01-04 17:17:00,
2013-01-04 11:22:00,47.7,32.7,30.44,NNE,16,7.0,12.0,56,0.00,,,0.00,meteohub,2013-01-04 17:22:00,
2013-01-04 11:27:00,47.7,32.7,30.44,NNW,340,6.0,10.0,56,0.00,,,0.00,meteohub,2013-01-04 17:27:00,
2013-01-04 11:32:00,47.7,32.7,30.45,NNW,345,7.0,10.0,56,0.00,,,0.00,meteohub,2013-01-04 17:32:00,
2013-01-04 11:37:00,47.8,32.9,30.44,NNW,342,5.0,11.0,56,0.00,,,0.00,meteohub,2013-01-04 17:37:00,
2013-01-04 11:42:00,48.0,32.5,30.44,NNW,346,6.0,11.0,55,0.00,,,0.00,meteohub,2013-01-04 17:42:00,
2013-01-04 11:47:00,48.2,32.4,30.43,NW,324,3.0,11.0,54,0.00,,,0.00,meteohub,2013-01-04 17:47:00,
2013-01-04 11:52:00,48.6,33.1,30.43,NW,309,6.0,10.0,55,0.00,,,0.00,meteohub,2013-01-04 17:52:00,
2013-01-04 11:57:00,48.7,33.3,30.43,NNW,328,1.0,10.0,55,0.00,,,0.00,meteohub,2013-01-04 17:57:00,
2013-01-04 12:02:00,48.9,33.1,30.42,NNW,329,2.0,9.0,54,0.00,,,0.00,meteohub,2013-01-04 18:02:00,
2013-01-04 12:07:00,49.1,33.3,30.41,NNW,337,2.0,9.0,54,0.00,,,0.00,meteohub,2013-01-04 18:07:00,
2013-01-04 12:12:00,49.8,33.4,30.40,NNW,342,5.0,9.0,53,0.00,,,0.00,meteohub,2013-01-04 18:12:00,
2013-01-04 12:17:00,50.2,34.2,30.40,NNW,342,0.0,8.0,54,0.00,,,0.00,meteohub,2013-01-04 18:17:00,
2013-01-04 12:22:00,50.2,33.3,30.41,NW,315,6.0,7.0,52,0.00,,,0.00,meteohub,2013-01-04 18:22:00,
2013-01-04 12:27:00,50.2,33.3,30.40,NW,323,4.0,10.0,52,0.00,,,0.00,meteohub,2013-01-04 18:27:00,
2013-01-04 12:32:00,50.5,33.6,30.40,NNW,329,4.0,10.0,52,0.00,,,0.00,meteohub,2013-01-04 18:32:00,
2013-01-04 12:37:00,51.1,33.1,30.40,NW,318,2.0,9.0,50,0.00,,,0.00,meteohub,2013-01-04 18:37:00,
2013-01-04 12:42:00,51.4,34.0,30.40,NNW,332,5.0,9.0,51,0.00,,,0.00,meteohub,2013-01-04 18:42:00,
2013-01-04 12:48:00,51.6,33.6,30.39,NW,323,3.0,9.0,50,0.00,,,0.00,meteohub,2013-01-04 18:48:00,
2013-01-04 12:53:00,52.2,33.6,30.38,NNW,341,4.0,9.0,49,0.00,,,0.00,meteohub,2013-01-04 18:53:00,
2013-01-04 12:58:00,52.2,33.6,30.38,North,355,0.0,10.0,49,0.00,,,0.00,meteohub,2013-01-04 18:58:00,
2013-01-04 13:03:00,52.5,32.9,30.38,North,350,7.0,10.0,47,0.00,,,0.00,meteohub,2013-01-04 19:03:00,
2013-01-04 13:08:00,52.3,32.7,30.38,NE,56,2.0,10.0,47,0.00,,,0.00,meteohub,2013-01-04 19:08:00,
2013-01-04 13:13:00,52.9,32.2,30.38,NNW,344,3.0,10.0,45,0.00,,,0.00,meteohub,2013-01-04 19:13:00,
2013-01-04 13:18:00,53.1,31.1,30.38,NW,325,4.0,9.0,43,0.00,,,0.00,meteohub,2013-01-04 19:18:00,
2013-01-04 13:23:00,53.2,31.3,30.37,NNW,331,7.0,9.0,43,0.00,,,0.00,meteohub,2013-01-04 19:23:00,
2013-01-04 13:28:00,53.2,30.7,30.37,WNW,293,9.0,10.0,42,0.00,,,0.00,meteohub,2013-01-04 19:28:00,
2013-01-04 13:33:00,53.4,31.5,30.37,North,0,6.0,11.0,43,0.00,,,0.00,meteohub,2013-01-04 19:33:00,
2013-01-04 13:38:00,53.6,31.1,30.36,NNW,341,2.0,12.0,42,0.00,,,0.00,meteohub,2013-01-04 19:38:00,
2013-01-04 13:43:00,53.8,31.3,30.36,NNW,329,6.0,12.0,42,0.00,,,0.00,meteohub,2013-01-04 19:43:00,
2013-01-04 13:48:00,53.8,30.6,30.35,NNW,344,6.0,11.0,41,0.00,,,0.00,meteohub,2013-01-04 19:48:00,
2013-01-04 13:53:00,54.0,31.5,30.35,NNW,346,4.0,11.0,42,0.00,,,0.00,meteohub,2013-01-04 19:53:00,
2013-01-04 13:58:00,54.7,33.3,30.35,NW,306,5.0,11.0,44,0.00,,,0.00,meteohub,2013-01-04 19:58:00,
2013-01-04 14:03:00,54.9,31.6,30.35,NW,321,10.0,11.0,41,0.00,,,0.00,meteohub,2013-01-04 20:03:00,
2013-01-04 14:08:00,54.7,30.9,30.35,WNW,293,4.0,10.0,40,0.00,,,0.00,meteohub,2013-01-04 20:08:00,
2013-01-04 14:13:00,54.9,31.6,30.35,North,350,5.0,10.0,41,0.00,,,0.00,meteohub,2013-01-04 20:13:00,
2013-01-04 14:18:00,55.0,31.1,30.35,NNW,331,9.0,11.0,40,0.00,,,0.00,meteohub,2013-01-04 20:18:00,
2013-01-04 14:23:00,54.9,30.9,30.35,NNW,330,4.0,14.0,40,0.00,,,0.00,meteohub,2013-01-04 20:23:00,
2013-01-04 14:28:00,54.7,30.2,30.35,NW,321,8.0,14.0,39,0.00,,,0.00,meteohub,2013-01-04 20:28:00,
2013-01-04 14:33:00,54.9,30.9,30.35,NNW,330,5.0,14.0,40,0.00,,,0.00,meteohub,2013-01-04 20:33:00,
2013-01-04 14:38:00,54.9,30.4,30.35,NNW,327,4.0,10.0,39,0.00,,,0.00,meteohub,2013-01-04 20:38:00,
2013-01-04 14:43:00,54.9,30.4,30.35,NNW,344,3.0,10.0,39,0.00,,,0.00,meteohub,2013-01-04 20:43:00,
2013-01-04 14:48:00,55.0,30.6,30.35,NW,316,6.0,8.0,39,0.00,,,0.00,meteohub,2013-01-04 20:48:00,
2013-01-04 14:53:00,55.4,30.2,30.35,NW,317,6.0,11.0,38,0.00,,,0.00,meteohub,2013-01-04 20:53:00,
2013-01-04 14:58:00,55.2,30.7,30.35,NW,324,6.0,11.0,39,0.00,,,0.00,meteohub,2013-01-04 20:58:00,
2013-01-04 15:03:00,55.6,30.4,30.35,WNW,296,7.0,11.0,38,0.00,,,0.00,meteohub,2013-01-04 21:03:00,
2013-01-04 15:08:00,55.6,30.4,30.35,NW,317,4.0,10.0,38,0.00,,,0.00,meteohub,2013-01-04 21:08:00,
2013-01-04 15:13:00,55.8,31.1,30.34,NW,323,6.0,10.0,39,0.00,,,0.00,meteohub,2013-01-04 21:13:00,
2013-01-04 15:18:00,55.9,31.3,30.34,NNW,328,6.0,11.0,39,0.00,,,0.00,meteohub,2013-01-04 21:18:00,
2013-01-04 15:23:00,55.9,31.3,30.34,NW,319,7.0,11.0,39,0.00,,,0.00,meteohub,2013-01-04 21:23:00,
2013-01-04 15:28:00,55.9,31.3,30.34,North,5,2.0,11.0,39,0.00,,,0.00,meteohub,2013-01-04 21:28:00,
2013-01-04 15:33:00,56.1,31.5,30.34,NW,307,9.0,11.0,39,0.00,,,0.00,meteohub,2013-01-04 21:33:00,
2013-01-04 15:38:00,55.9,31.3,30.34,NW,324,10.0,10.0,39,0.00,,,0.00,meteohub,2013-01-04 21:38:00,
2013-01-04 15:43:00,55.8,32.4,30.34,NNW,344,3.0,12.0,41,0.00,,,0.00,meteohub,2013-01-04 21:43:00,
2013-01-04 15:48:00,55.8,31.1,30.34,NNW,327,6.0,12.0,39,0.00,,,0.00,meteohub,2013-01-04 21:48:00,
2013-01-04 15:53:00,55.6,31.6,30.35,NW,317,4.0,12.0,40,0.00,,,0.00,meteohub,2013-01-04 21:53:00,
2013-01-04 15:58:00,55.6,31.6,30.35,NW,326,6.0,10.0,40,0.00,,,0.00,meteohub,2013-01-04 21:58:00,
2013-01-04 16:03:00,55.6,31.6,30.35,NNW,327,5.0,10.0,40,0.00,,,0.00,meteohub,2013-01-04 22:03:00,
2013-01-04 16:08:00,55.4,32.0,30.35,NNW,327,5.0,8.0,41,0.00,,,0.00,meteohub,2013-01-04 22:08:00,
2013-01-04 16:13:00,55.6,32.2,30.35,NNW,327,4.0,9.0,41,0.00,,,0.00,meteohub,2013-01-04 22:13:00,
2013-01-04 16:18:00,55.6,31.6,30.35,NNW,329,4.0,9.0,40,0.00,,,0.00,meteohub,2013-01-04 22:18:00,
2013-01-04 16:23:00,55.6,32.2,30.35,NNW,329,3.0,9.0,41,0.00,,,0.00,meteohub,2013-01-04 22:23:00,
2013-01-04 16:29:00,55.6,32.2,30.35,NNW,329,2.0,8.0,41,0.00,,,0.00,meteohub,2013-01-04 22:29:00,
2013-01-04 16:34:00,55.6,31.6,30.35,NNW,329,3.0,8.0,40,0.00,,,0.00,meteohub,2013-01-04 22:34:00,
2013-01-04 16:39:00,55.6,32.9,30.35,NNW,329,5.0,7.0,42,0.00,,,0.00,meteohub,2013-01-04 22:39:00,
2013-01-04 16:44:00,55.4,33.3,30.35,NNW,329,1.0,6.0,43,0.00,,,0.00,meteohub,2013-01-04 22:44:00,
2013-01-04 16:49:00,55.2,33.1,30.35,NNW,329,2.0,6.0,43,0.00,,,0.00,meteohub,2013-01-04 22:49:00,
2013-01-04 16:54:00,55.2,33.1,30.35,NNW,329,2.0,5.0,43,0.00,,,0.00,meteohub,2013-01-04 22:54:00,
2013-01-04 16:59:00,55.0,32.9,30.35,NNW,329,1.0,5.0,43,0.00,,,0.00,meteohub,2013-01-04 22:59:00,
2013-01-04 17:04:00,55.0,32.9,30.35,NNW,329,1.0,5.0,43,0.00,,,0.00,meteohub,2013-01-04 23:04:00,
2013-01-04 17:09:00,54.9,33.4,30.35,NNW,329,1.0,5.0,44,0.00,,,0.00,meteohub,2013-01-04 23:09:00,
2013-01-04 17:14:00,54.7,33.3,30.35,NNW,329,0.0,5.0,44,0.00,,,0.00,meteohub,2013-01-04 23:14:00,
2013-01-04 17:19:00,54.7,33.8,30.35,NNW,329,1.0,4.0,45,0.00,,,0.00,meteohub,2013-01-04 23:19:00,
2013-01-04 17:24:00,54.7,33.8,30.35,NNW,329,0.0,4.0,45,0.00,,,0.00,meteohub,2013-01-04 23:24:00,
2013-01-04 17:29:00,54.7,33.8,30.35,NNW,329,2.0,4.0,45,0.00,,,0.00,meteohub,2013-01-04 23:29:00,
2013-01-04 17:34:00,54.5,34.2,30.35,NNW,329,0.0,4.0,46,0.00,,,0.00,meteohub,2013-01-04 23:34:00,
2013-01-04 17:39:00,54.3,34.5,30.35,NNW,329,0.0,4.0,47,0.00,,,0.00,meteohub,2013-01-04 23:39:00,
2013-01-04 17:44:00,54.3,34.0,30.35,NNW,329,1.0,3.0,46,0.00,,,0.00,meteohub,2013-01-04 23:44:00,
2013-01-04 17:49:00,54.3,34.0,30.36,NNW,329,0.0,3.0,46,0.00,,,0.00,meteohub,2013-01-04 23:49:00,
2013-01-04 17:54:00,54.1,34.3,30.36,NNW,329,0.0,3.0,47,0.00,,,0.00,meteohub,2013-01-04 23:54:00,
2013-01-04 17:59:00,54.1,34.3,30.36,NNW,329,1.0,3.0,47,0.00,,,0.00,meteohub,2013-01-04 23:59:00,
2013-01-04 18:04:00,53.8,36.1,30.37,NW,320,3.0,3.0,51,0.00,,,0.00,meteohub,2013-01-05 00:04:00,
2013-01-04 18:09:00,53.2,36.1,30.37,NW,319,2.0,5.0,52,0.00,,,0.00,meteohub,2013-01-05 00:09:00,
2013-01-04 18:14:00,52.9,36.7,30.37,NW,319,3.0,5.0,54,0.00,,,0.00,meteohub,2013-01-05 00:14:00,
2013-01-04 18:19:00,52.5,36.9,30.38,NW,317,4.0,5.0,55,0.00,,,0.00,meteohub,2013-01-05 00:19:00,
2013-01-04 18:24:00,52.3,36.7,30.38,NW,310,3.0,5.0,55,0.00,,,0.00,meteohub,2013-01-05 00:24:00,
2013-01-04 18:29:00,52.2,36.9,30.38,NW,310,3.0,6.0,56,0.00,,,0.00,meteohub,2013-01-05 00:29:00,
2013-01-04 18:34:00,52.2,37.4,30.38,NW,310,1.0,6.0,57,0.00,,,0.00,meteohub,2013-01-05 00:34:00,
2013-01-04 18:39:00,52.2,36.9,30.38,NW,310,3.0,5.0,56,0.00,,,0.00,meteohub,2013-01-05 00:39:00,
2013-01-04 18:44:00,52.0,37.2,30.38,NW,310,3.0,5.0,57,0.00,,,0.00,meteohub,2013-01-05 00:44:00,
2013-01-04 18:49:00,52.0,37.6,30.38,NW,310,1.0,5.0,58,0.00,,,0.00,meteohub,2013-01-05 00:49:00,
2013-01-04 18:54:00,51.8,37.0,30.38,NW,310,1.0,5.0,57,0.00,,,0.00,meteohub,2013-01-05 00:54:00,
2013-01-04 18:59:00,51.6,36.9,30.38,NW,310,0.0,5.0,57,0.00,,,0.00,meteohub,2013-01-05 00:59:00,
2013-01-04 19:04:00,51.6,37.4,30.38,NW,310,2.0,4.0,58,0.00,,,0.00,meteohub,2013-01-05 01:04:00,
2013-01-04 19:09:00,51.6,37.4,30.39,NW,310,4.0,5.0,58,0.00,,,0.00,meteohub,2013-01-05 01:09:00,
2013-01-04 19:14:00,51.4,37.2,30.38,NW,310,3.0,5.0,58,0.00,,,0.00,meteohub,2013-01-05 01:14:00,
2013-01-04 19:19:00,51.4,37.6,30.38,NW,310,3.0,5.0,59,0.00,,,0.00,meteohub,2013-01-05 01:19:00,
2013-01-04 19:24:00,51.3,37.4,30.38,NW,310,2.0,5.0,59,0.00,,,0.00,meteohub,2013-01-05 01:24:00,
2013-01-04 19:29:00,51.3,37.8,30.38,NW,306,5.0,5.0,60,0.00,,,0.00,meteohub,2013-01-05 01:29:00,
2013-01-04 19:34:00,51.1,37.8,30.38,NW,306,3.0,7.0,60,0.00,,,0.00,meteohub,2013-01-05 01:34:00,
2013-01-04 19:39:00,50.9,37.9,30.39,NW,306,4.0,7.0,61,0.00,,,0.00,meteohub,2013-01-05 01:39:00,
2013-01-04 19:44:00,50.7,38.1,30.39,NW,306,3.0,7.0,62,0.00,,,0.00,meteohub,2013-01-05 01:44:00,
2013-01-04 19:49:00,50.5,37.6,30.39,NW,306,4.0,6.0,61,0.00,,,0.00,meteohub,2013-01-05 01:49:00,
2013-01-04 19:55:00,50.5,37.6,30.39,NW,306,4.0,7.0,61,0.00,,,0.00,meteohub,2013-01-05 01:55:00,
2013-01-04 19:59:00,50.5,37.6,30.39,NW,318,5.0,7.0,61,0.00,,,0.00,meteohub,2013-01-05 01:59:00,
2013-01-04 20:05:00,50.5,37.6,30.39,NW,318,3.0,7.0,61,0.00,,,0.00,meteohub,2013-01-05 02:05:00,
2013-01-04 20:10:00,50.5,37.6,30.39,NW,318,6.0,6.0,61,0.00,,,0.00,meteohub,2013-01-05 02:10:00,
2013-01-04 20:15:00,50.5,37.6,30.39,NW,318,4.0,6.0,61,0.00,,,0.00,meteohub,2013-01-05 02:15:00,
2013-01-04 20:20:00,50.5,37.6,30.39,NW,318,2.0,6.0,61,0.00,,,0.00,meteohub,2013-01-05 02:20:00,
2013-01-04 20:24:00,50.4,37.4,30.39,NW,318,3.0,7.0,61,0.00,,,0.00,meteohub,2013-01-05 02:24:00,
2013-01-04 20:30:00,50.4,37.4,30.39,NW,318,2.0,7.0,61,0.00,,,0.00,meteohub,2013-01-05 02:30:00,
2013-01-04 20:35:00,50.2,37.2,30.38,NW,318,4.0,7.0,61,0.00,,,0.00,meteohub,2013-01-05 02:35:00,
2013-01-04 20:40:00,50.2,37.6,30.38,NW,318,2.0,6.0,62,0.00,,,0.00,meteohub,2013-01-05 02:40:00,
2013-01-04 20:44:00,50.2,37.6,30.38,NW,318,1.0,6.0,62,0.00,,,0.00,meteohub,2013-01-05 02:44:00,
2013-01-04 20:49:00,50.0,37.9,30.38,NW,318,2.0,6.0,63,0.00,,,0.00,meteohub,2013-01-05 02:49:00,
2013-01-04 20:55:00,50.0,37.9,30.38,NW,318,2.0,5.0,63,0.00,,,0.00,meteohub,2013-01-05 02:55:00,
2013-01-04 20:59:00,50.0,37.9,30.38,NW,318,2.0,4.0,63,0.00,,,0.00,meteohub,2013-01-05 02:59:00,
2013-01-04 21:05:00,50.0,38.3,30.38,NW,318,1.0,4.0,64,0.00,,,0.00,meteohub,2013-01-05 03:05:00,
2013-01-04 21:10:00,49.8,38.1,30.38,NW,318,4.0,4.0,64,0.00,,,0.00,meteohub,2013-01-05 03:10:00,
2013-01-04 21:15:00,49.8,38.1,30.38,NW,318,3.0,4.0,64,0.00,,,0.00,meteohub,2013-01-05 03:15:00,
2013-01-04 21:20:00,49.8,38.1,30.38,NW,318,3.0,4.0,64,0.00,,,0.00,meteohub,2013-01-05 03:20:00,
2013-01-04 21:25:00,49.8,38.1,30.38,NW,318,3.0,4.0,64,0.00,,,0.00,meteohub,2013-01-05 03:25:00,
2013-01-04 21:30:00,49.6,37.9,30.38,NW,318,1.0,6.0,64,0.00,,,0.00,meteohub,2013-01-05 03:30:00,
2013-01-04 21:35:00,49.6,37.9,30.37,NW,318,1.0,6.0,64,0.00,,,0.00,meteohub,2013-01-05 03:35:00,
2013-01-04 21:40:00,49.6,37.6,30.38,NW,318,3.0,5.0,63,0.00,,,0.00,meteohub,2013-01-05 03:40:00,
2013-01-04 21:45:00,49.6,37.6,30.38,NW,318,1.0,5.0,63,0.00,,,0.00,meteohub,2013-01-05 03:45:00,
2013-01-04 21:50:00,49.6,37.6,30.38,NW,318,2.0,4.0,63,0.00,,,0.00,meteohub,2013-01-05 03:50:00,
2013-01-04 21:55:00,49.6,38.3,30.38,NW,318,2.0,4.0,65,0.00,,,0.00,meteohub,2013-01-05 03:55:00,
2013-01-04 22:00:00,49.5,38.1,30.37,NW,318,1.0,4.0,65,0.00,,,0.00,meteohub,2013-01-05 04:00:00,
2013-01-04 22:05:00,49.5,38.1,30.37,NW,318,3.0,4.0,65,0.00,,,0.00,meteohub,2013-01-05 04:05:00,
2013-01-04 22:10:00,49.3,37.9,30.37,NW,318,2.0,6.0,65,0.00,,,0.00,meteohub,2013-01-05 04:10:00,
2013-01-04 22:15:00,49.3,37.9,30.37,NW,318,3.0,6.0,65,0.00,,,0.00,meteohub,2013-01-05 04:15:00,
2013-01-04 22:20:00,49.3,38.5,30.36,NW,318,2.0,5.0,66,0.00,,,0.00,meteohub,2013-01-05 04:20:00,
2013-01-04 22:25:00,49.3,37.9,30.36,NW,318,1.0,5.0,65,0.00,,,0.00,meteohub,2013-01-05 04:25:00,
2013-01-04 22:30:00,49.3,37.2,30.36,NW,318,5.0,5.0,63,0.00,,,0.00,meteohub,2013-01-05 04:30:00,
2013-01-04 22:35:00,49.5,36.5,30.35,North,5,3.0,7.0,61,0.00,,,0.00,meteohub,2013-01-05 04:35:00,
2013-01-04 22:40:00,49.6,36.0,30.36,NNW,348,3.0,7.0,59,0.00,,,0.00,meteohub,2013-01-05 04:40:00,
2013-01-04 22:45:00,49.6,36.0,30.36,NNE,28,3.0,8.0,59,0.00,,,0.00,meteohub,2013-01-05 04:45:00,
2013-01-04 22:50:00,49.6,36.0,30.35,North,5,4.0,8.0,59,0.00,,,0.00,meteohub,2013-01-05 04:50:00,
2013-01-04 22:55:00,49.6,36.0,30.35,North,355,1.0,8.0,59,0.00,,,0.00,meteohub,2013-01-05 04:55:00,
2013-01-04 23:00:00,49.5,35.8,30.35,NNE,30,7.0,8.0,59,0.00,,,0.00,meteohub,2013-01-05 05:00:00,
2013-01-04 23:03:00,49.3,35.6,30.35,NNE,19,2.0,8.0,59,0.00,,,0.00,meteohub,2013-01-05 05:03:00,
2013-01-04 23:08:00,49.1,35.8,30.35,NE,34,4.0,9.0,60,0.00,,,0.00,meteohub,2013-01-05 05:08:00,
2013-01-04 23:13:00,48.9,35.6,30.34,NE,34,3.0,9.0,60,0.00,,,0.00,meteohub,2013-01-05 05:13:00,
2013-01-04 23:18:00,48.7,36.0,30.34,NNE,32,3.0,9.0,61,0.00,,,0.00,meteohub,2013-01-05 05:18:00,
2013-01-04 23:23:00,48.6,35.8,30.34,NNE,24,2.0,9.0,61,0.00,,,0.00,meteohub,2013-01-05 05:23:00,
2013-01-04 23:28:00,48.4,35.6,30.35,NNE,13,3.0,8.0,61,0.00,,,0.00,meteohub,2013-01-05 05:28:00,
2013-01-04 23:33:00,48.4,36.0,30.34,NNE,13,3.0,7.0,62,0.00,,,0.00,meteohub,2013-01-05 05:33:00,
2013-01-04 23:38:00,48.0,35.6,30.34,NNE,15,2.0,5.0,62,0.00,,,0.00,meteohub,2013-01-05 05:38:00,
2013-01-04 23:43:00,48.0,36.0,30.34,NNE,15,1.0,6.0,63,0.00,,,0.00,meteohub,2013-01-05 05:43:00,
2013-01-04 23:48:00,47.8,35.8,30.34,NNE,15,3.0,6.0,63,0.00,,,0.00,meteohub,2013-01-05 05:48:00,
2013-01-04 23:53:00,47.8,35.8,30.34,NE,51,1.0,6.0,63,0.00,,,0.00,meteohub,2013-01-05 05:53:00,
2013-01-04 23:58:00,47.8,35.8,30.33,NE,53,5.0,7.0,63,0.00,,,0.00,meteohub,2013-01-05 05:58:00,